This is the latest recevied weather packets stored in our database for station/object K4AVM-13. If no packets are shown the sender has not sent any weather packets the latest 10 day(s).
| Time | Temp. | Humidity | Pressure | Rain* | Wind** | Luminosity | Snow |
|---|---|---|---|---|---|---|---|
| 1777581615 | 21.67° C | 45% | 1009.5 hPa | 0 mm | - | 92 W/m² | - |
| 1777581309 | 22.78° C | 43% | 1009.3 hPa | 0 mm | - | 90 W/m² | - |
| 1777581004 | 23.33° C | 44% | 1009.4 hPa | 0 mm | - | 447 W/m² | - |
| 1777580704 | 22.22° C | 45% | 1009.4 hPa | 0 mm | - | 482 W/m² | - |
| 1777580400 | 20.56° C | 49% | 1009.4 hPa | 0 mm | - | 144 W/m² | - |
| 1777580096 | 20.56° C | 48% | 1009.5 hPa | 0 mm | - | 118 W/m² | - |
| 1777579792 | 21.11° C | 47% | 1009.4 hPa | 0 mm | - | 114 W/m² | - |
| 1777579490 | 22.22° C | 44% | 1009.7 hPa | 0 mm | - | 129 W/m² | - |
| 1777579185 | 23.33° C | 45% | 1009.5 hPa | 0 mm | - | 149 W/m² | - |
| 1777578880 | 23.89° C | 44% | 1009.4 hPa | 0 mm | - | 589 W/m² | - |
| 1777578577 | 23.89° C | 44% | 1009.3 hPa | 0 mm | - | 587 W/m² | - |
| 1777578271 | 23.33° C | 46% | 1009.4 hPa | 0 mm | - | 570 W/m² | - |
| 1777577967 | 23.33° C | 44% | 1009.4 hPa | 0 mm | - | 636 W/m² | - |
| 1777577662 | 21.67° C | 47% | 1009.5 hPa | 0 mm | - | 711 W/m² | - |
| 1777577360 | 22.78° C | 45% | 1009.2 hPa | 0 mm | - | 226 W/m² | - |
| 1777577056 | 22.78° C | 46% | 1009.6 hPa | 0 mm | - | 691 W/m² | - |
| 1777576753 | 21.67° C | 49% | 1009.4 hPa | 0 mm | - | 654 W/m² | - |
| 1777576451 | 21.67° C | 51% | 1009.5 hPa | 0 mm | - | 663 W/m² | - |
| 1777576149 | 21.67° C | 51% | 1009.6 hPa | 0 mm | - | 156 W/m² | - |
| 1777575844 | 21.67° C | 51% | 1009.7 hPa | 0 mm | - | 156 W/m² | - |
| 1777575541 | 21.67° C | 51% | 1009.5 hPa | 0 mm | - | 156 W/m² | - |
| 1777575236 | 21.67° C | 51% | 1009.7 hPa | 0 mm | - | 156 W/m² | - |
| 1777574933 | 21.67° C | 51% | 1009.7 hPa | 0 mm | - | 156 W/m² | - |
| 1777574629 | 21.67° C | 51% | 1009.5 hPa | 0 mm | - | 156 W/m² | - |
| 1777574326 | 22.78° C | 50% | 1009.4 hPa | 0 mm | - | 718 W/m² | - |
* Rain latest hour (hover to see other rain measurements)
** Current wind speed in m/s (hover to see current wind gust speed)